SAS926 KIAD-EKCH

Flight info

Callsign SAS926
Flight time N/A
Altitude 39000
Route JCOBY4 SWANN DCT BROSS Q419 RBV Q22 FOXWD DCT WITCH DCT TOPPS DCT JANJO/M084F400 NATT KESIX/N0490F410 DCT IBROD DCT ELSAN DCT VAXIT N581 EVAKI T55 TESPI
Aircraft A359/H-SDE2E3GHIJ3J4J5LM1ORWXY/LB1D1

Departure

Time N/A
Airport Washington Dulles International Airport (KIAD)

Arrival

Time 2026-05-07 05:09
Airport Copenhagen Kastrup Airport (EKCH)
Time Latitude Longitude Altitude Speed Heading
2026-05-07 03:40 56.70428 -6.25073 40900 ft 515 kts 88°
2026-05-07 03:41 56.70940 -6.12072 40907 ft 515 kts 88°
2026-05-07 03:41 56.71438 -5.99065 40906 ft 515 kts 88°
2026-05-07 03:42 56.71921 -5.86124 40913 ft 515 kts 88°
2026-05-07 03:42 56.72393 -5.73111 40916 ft 515 kts 88°
2026-05-07 03:43 56.72851 -5.60083 40924 ft 515 kts 88°
2026-05-07 03:43 56.73296 -5.47065 40929 ft 515 kts 88°
2026-05-07 03:44 56.73729 -5.34032 40931 ft 515 kts 88°
2026-05-07 03:44 56.74147 -5.20990 40925 ft 515 kts 89°
2026-05-07 03:45 56.74550 -5.07944 40934 ft 515 kts 89°
2026-05-07 03:45 56.74940 -4.94908 40934 ft 515 kts 89°
2026-05-07 03:46 56.75318 -4.81884 40933 ft 515 kts 89°
2026-05-07 03:46 56.75680 -4.68851 40933 ft 514 kts 89°
2026-05-07 03:47 56.76028 -4.55822 40945 ft 514 kts 89°
2026-05-07 03:47 56.76362 -4.42810 40947 ft 514 kts 89°
2026-05-07 03:48 56.76682 -4.29806 40951 ft 514 kts 89°
2026-05-07 03:48 56.76992 -4.16805 40954 ft 513 kts 89°
2026-05-07 03:49 56.77285 -4.03869 40965 ft 513 kts 90°
2026-05-07 03:49 56.77568 -3.90791 40963 ft 513 kts 90°
2026-05-07 03:50 56.77833 -3.77881 40968 ft 513 kts 90°
2026-05-07 03:50 56.78086 -3.64891 40968 ft 513 kts 90°
2026-05-07 03:51 56.78324 -3.51896 40974 ft 513 kts 90°
2026-05-07 03:51 56.78542 -3.39370 40982 ft 513 kts 90°
2026-05-07 03:52 56.78755 -3.26376 40974 ft 513 kts 90°
2026-05-07 03:52 56.78955 -3.13343 40975 ft 513 kts 90°
2026-05-07 03:53 56.79112 -3.02414 40982 ft 514 kts 90°
2026-05-07 03:53 56.79287 -2.89400 40983 ft 514 kts 90°
2026-05-07 03:54 56.79450 -2.76359 40986 ft 514 kts 90°
2026-05-07 03:54 56.79598 -2.63331 40979 ft 514 kts 91°
2026-05-07 03:55 56.79732 -2.50298 40988 ft 514 kts 91°
2026-05-07 03:55 56.79853 -2.37248 40984 ft 514 kts 91°
2026-05-07 03:56 56.79961 -2.24305 40991 ft 514 kts 91°
2026-05-07 03:56 56.80056 -2.11244 40992 ft 514 kts 91°
2026-05-07 03:57 56.80134 -1.98206 41003 ft 514 kts 91°
2026-05-07 03:57 56.80197 -1.85151 41000 ft 514 kts 91°
2026-05-07 03:58 56.80248 -1.72083 41008 ft 515 kts 91°
2026-05-07 03:58 56.80286 -1.59023 41005 ft 515 kts 91°
2026-05-07 03:59 56.80312 -1.45974 41013 ft 515 kts 92°
2026-05-07 03:59 56.80324 -1.32899 41016 ft 515 kts 92°
2026-05-07 04:00 56.80323 -1.19820 41020 ft 515 kts 92°
2026-05-07 04:00 56.80307 -1.06819 41021 ft 516 kts 92°
2026-05-07 04:01 56.80281 -0.93728 41022 ft 516 kts 92°
2026-05-07 04:01 56.80240 -0.80626 41033 ft 516 kts 92°
2026-05-07 04:02 56.80181 -0.67539 41028 ft 516 kts 92°
2026-05-07 04:02 56.80109 -0.54433 41036 ft 516 kts 92°
2026-05-07 04:03 56.80026 -0.41402 41036 ft 516 kts 92°
2026-05-07 04:03 56.79927 -0.28298 41030 ft 517 kts 92°
2026-05-07 04:04 56.79816 -0.15177 41040 ft 517 kts 92°
2026-05-07 04:04 56.79690 -0.02049 41046 ft 517 kts 92°
2026-05-07 04:05 56.79552 0.11054 41043 ft 517 kts 92°
2026-05-07 04:05 56.79401 0.24167 41049 ft 517 kts 93°
2026-05-07 04:06 56.79234 0.37282 41048 ft 517 kts 93°
2026-05-07 04:06 56.79054 0.50395 41049 ft 517 kts 93°
2026-05-07 04:07 56.78860 0.63509 41059 ft 517 kts 93°
2026-05-07 04:07 56.78653 0.76615 41063 ft 517 kts 93°
2026-05-07 04:08 56.78431 0.89730 41059 ft 517 kts 93°
2026-05-07 04:08 56.78195 1.02840 41063 ft 517 kts 93°
2026-05-07 04:09 56.77946 1.15948 41065 ft 517 kts 94°
2026-05-07 04:09 56.77685 1.28969 41065 ft 517 kts 94°
2026-05-07 04:10 56.77409 1.42082 41065 ft 517 kts 94°
2026-05-07 04:10 56.77121 1.55179 41070 ft 517 kts 94°
2026-05-07 04:11 56.76821 1.68263 41072 ft 517 kts 94°
2026-05-07 04:11 56.76502 1.81362 41071 ft 517 kts 94°
2026-05-07 04:12 56.76167 1.94446 41079 ft 517 kts 94°
2026-05-07 04:12 56.75821 2.07526 41073 ft 517 kts 95°
2026-05-07 04:13 56.75462 2.20603 41077 ft 516 kts 95°
2026-05-07 04:13 56.75090 2.33665 41071 ft 516 kts 95°
2026-05-07 04:14 56.74705 2.46754 41071 ft 516 kts 95°
2026-05-07 04:14 56.74307 2.59805 41069 ft 516 kts 95°
2026-05-07 04:15 56.73899 2.72770 41076 ft 516 kts 95°
2026-05-07 04:15 56.73472 2.85840 41079 ft 516 kts 95°
2026-05-07 04:16 56.73033 2.98890 41078 ft 516 kts 96°
2026-05-07 04:16 56.72577 3.11947 41088 ft 516 kts 96°
2026-05-07 04:17 56.72110 3.24986 41084 ft 516 kts 96°
2026-05-07 04:17 56.71629 3.38022 41085 ft 516 kts 96°
2026-05-07 04:18 56.71134 3.51066 41087 ft 516 kts 96°
2026-05-07 04:18 56.70627 3.64092 41075 ft 516 kts 96°
2026-05-07 04:19 56.69745 3.77009 41079 ft 513 kts 104°
2026-05-07 04:19 56.68201 3.89709 41073 ft 514 kts 106°
2026-05-07 04:20 56.66548 4.02372 41080 ft 515 kts 106°
2026-05-07 04:20 56.64880 4.15040 41091 ft 515 kts 106°
2026-05-07 04:21 56.62393 4.33920 41070 ft 515 kts 106°
2026-05-07 04:21 56.60717 4.46553 41084 ft 515 kts 107°
2026-05-07 04:22 56.59027 4.59180 41081 ft 514 kts 107°
2026-05-07 04:22 56.57326 4.71781 41080 ft 515 kts 107°
2026-05-07 04:23 56.55607 4.84396 41076 ft 515 kts 107°
2026-05-07 04:23 56.53880 4.96974 41077 ft 515 kts 107°
2026-05-07 04:24 56.52259 5.09632 41074 ft 516 kts 104°
2026-05-07 04:24 56.50908 5.22382 41070 ft 516 kts 103°
2026-05-07 04:25 56.49789 5.32980 41068 ft 515 kts 104°
2026-05-07 04:25 56.48153 5.47772 41069 ft 515 kts 104°
2026-05-07 04:26 56.46943 5.58402 41065 ft 515 kts 105°
2026-05-07 04:26 56.45482 5.71086 41064 ft 515 kts 105°
2026-05-07 04:27 56.44010 5.83757 41062 ft 515 kts 105°
2026-05-07 04:27 56.42556 5.96171 41065 ft 515 kts 105°
2026-05-07 04:28 56.41063 6.08817 41061 ft 515 kts 105°
2026-05-07 04:28 56.39566 6.21378 41055 ft 515 kts 105°
2026-05-07 04:29 56.38043 6.34037 41059 ft 515 kts 105°
2026-05-07 04:29 56.36507 6.46666 41057 ft 515 kts 105°
2026-05-07 04:30 56.34962 6.59276 41052 ft 515 kts 106°
2026-05-07 04:30 56.33403 6.71881 41053 ft 515 kts 106°
2026-05-07 04:31 56.31830 6.84479 41051 ft 515 kts 106°
2026-05-07 04:31 56.30243 6.97066 41048 ft 515 kts 106°
2026-05-07 04:32 56.28644 7.09632 41045 ft 515 kts 106°
2026-05-07 04:32 56.27046 7.22094 41046 ft 515 kts 107°
2026-05-07 04:33 56.25422 7.34642 41046 ft 515 kts 107°
2026-05-07 04:33 56.23944 7.47229 41038 ft 517 kts 99°
2026-05-07 04:34 56.23638 7.60181 41040 ft 519 kts 94°
2026-05-07 04:34 56.23621 7.73153 41041 ft 518 kts 92°
2026-05-07 04:35 56.23636 7.86103 41040 ft 518 kts 93°
2026-05-07 04:35 56.23622 7.99062 41037 ft 518 kts 93°
2026-05-07 04:36 56.23579 8.12017 41037 ft 519 kts 93°
2026-05-07 04:36 56.23517 8.24992 41038 ft 519 kts 94°
2026-05-07 04:37 56.23442 8.37969 41038 ft 519 kts 94°
2026-05-07 04:37 56.23353 8.50947 41035 ft 519 kts 94°
2026-05-07 04:38 56.23251 8.63913 41032 ft 519 kts 94°
2026-05-07 04:38 56.23137 8.76891 41026 ft 519 kts 94°
2026-05-07 04:39 56.23009 8.89768 41024 ft 519 kts 94°
2026-05-07 04:39 56.22868 9.02740 41018 ft 519 kts 94°
2026-05-07 04:40 56.22714 9.15707 41018 ft 519 kts 95°
2026-05-07 04:40 56.22630 9.22171 40685 ft 516 kts 95°
2026-05-07 04:40 56.22541 9.28639 39965 ft 518 kts 95°
2026-05-07 04:41 56.22420 9.35127 39268 ft 519 kts 97°
2026-05-07 04:41 56.21921 9.41538 38622 ft 516 kts 107°
2026-05-07 04:41 56.20920 9.47695 37830 ft 513 kts 114°
2026-05-07 04:41 56.19720 9.53722 37118 ft 510 kts 115°
2026-05-07 04:42 56.18470 9.59602 36447 ft 509 kts 117°
2026-05-07 04:42 56.17159 9.65586 35721 ft 508 kts 117°
2026-05-07 04:42 56.15872 9.71401 34958 ft 509 kts 118°
2026-05-07 04:42 56.14548 9.77384 34122 ft 511 kts 118°
2026-05-07 04:43 56.13241 9.83324 33166 ft 512 kts 118°
2026-05-07 04:43 56.11942 9.89262 32281 ft 512 kts 117°
2026-05-07 04:43 56.10640 9.95204 31373 ft 512 kts 118°
2026-05-07 04:43 56.09074 10.00797 30451 ft 506 kts 128°
2026-05-07 04:44 56.07217 10.06142 29370 ft 506 kts 129°
2026-05-07 04:44 56.05313 10.11417 28645 ft 500 kts 129°
2026-05-07 04:44 56.03418 10.16574 27989 ft 493 kts 129°
2026-05-07 04:44 56.01527 10.21658 27327 ft 487 kts 130°
2026-05-07 04:45 55.99653 10.26661 26658 ft 483 kts 130°
2026-05-07 04:45 55.97787 10.31616 25977 ft 478 kts 130°
2026-05-07 04:45 55.95940 10.36503 25322 ft 474 kts 129°
2026-05-07 04:45 55.94103 10.41351 24663 ft 469 kts 129°
2026-05-07 04:46 55.92277 10.46158 24009 ft 466 kts 129°
2026-05-07 04:46 55.90523 10.50984 23298 ft 465 kts 124°
2026-05-07 04:46 55.89279 10.56292 22636 ft 465 kts 110°
2026-05-07 04:46 55.88530 10.61881 21974 ft 462 kts 105°
2026-05-07 04:47 55.87879 10.67458 21308 ft 458 kts 105°
2026-05-07 04:47 55.87231 10.72981 20641 ft 454 kts 105°
2026-05-07 04:47 55.86576 10.78459 19965 ft 450 kts 105°
2026-05-07 04:47 55.85919 10.83888 19290 ft 447 kts 105°
2026-05-07 04:48 55.85261 10.89277 18622 ft 445 kts 105°
2026-05-07 04:48 55.84602 10.94640 17891 ft 441 kts 105°
2026-05-07 04:48 55.83874 10.99893 17211 ft 435 kts 108°
2026-05-07 04:48 55.83094 11.05051 16542 ft 429 kts 108°
2026-05-07 04:49 55.82328 11.10125 16171 ft 416 kts 108°
2026-05-07 04:49 55.81596 11.14993 16037 ft 398 kts 108°
2026-05-07 04:49 55.80894 11.19647 15903 ft 382 kts 108°
2026-05-07 04:49 55.80217 11.24124 15774 ft 367 kts 108°
2026-05-07 04:50 55.79569 11.28412 15634 ft 354 kts 108°
2026-05-07 04:50 55.78945 11.32568 15508 ft 341 kts 108°
2026-05-07 04:50 55.78354 11.36507 15351 ft 329 kts 107°
2026-05-07 04:50 55.77762 11.40435 15061 ft 323 kts 107°
2026-05-07 04:51 55.77242 11.44298 14679 ft 320 kts 102°
2026-05-07 04:51 55.76904 11.48125 14375 ft 316 kts 99°
2026-05-07 04:51 55.76600 11.52041 14013 ft 315 kts 99°
2026-05-07 04:51 55.76307 11.55828 13662 ft 313 kts 99°
2026-05-07 04:52 55.76009 11.59644 13322 ft 310 kts 99°
2026-05-07 04:52 55.75712 11.63416 12999 ft 308 kts 99°
2026-05-07 04:52 55.75414 11.67160 12673 ft 306 kts 99°
2026-05-07 04:52 55.75115 11.70881 12359 ft 303 kts 99°
2026-05-07 04:53 55.74818 11.74580 12038 ft 301 kts 100°
2026-05-07 04:53 55.74526 11.78260 11720 ft 301 kts 100°
2026-05-07 04:53 55.74233 11.81933 11402 ft 299 kts 100°
2026-05-07 04:53 55.73934 11.85575 11088 ft 298 kts 101°
2026-05-07 04:54 55.73635 11.89210 10770 ft 297 kts 100°
2026-05-07 04:54 55.73336 11.92830 10449 ft 296 kts 100°
2026-05-07 04:54 55.73038 11.96436 10138 ft 295 kts 100°
2026-05-07 04:54 55.72741 12.00027 9810 ft 294 kts 100°
2026-05-07 04:55 55.72444 12.03633 9479 ft 295 kts 100°
2026-05-07 04:55 55.72143 12.07227 9170 ft 294 kts 100°
2026-05-07 04:55 55.71842 12.10794 8853 ft 292 kts 100°
2026-05-07 04:55 55.71543 12.14337 8535 ft 289 kts 100°
2026-05-07 04:56 55.71247 12.17842 8219 ft 287 kts 100°
2026-05-07 04:56 55.70909 12.21326 7916 ft 286 kts 104°
2026-05-07 04:56 55.70115 12.24453 7611 ft 282 kts 129°
2026-05-07 04:56 55.68744 12.26879 7267 ft 279 kts 141°
2026-05-07 04:57 55.67252 12.29081 6974 ft 279 kts 141°
2026-05-07 04:57 55.65741 12.31304 6685 ft 278 kts 141°
2026-05-07 04:57 55.64287 12.33464 6359 ft 276 kts 140°
2026-05-07 04:57 55.62804 12.35659 6054 ft 274 kts 141°
2026-05-07 04:58 55.61197 12.37351 5760 ft 273 kts 161°
2026-05-07 04:58 55.59335 12.37641 5443 ft 270 kts 191°
2026-05-07 04:58 55.57639 12.36322 5197 ft 264 kts 219°
2026-05-07 04:58 55.56262 12.34280 5062 ft 253 kts 224°
2026-05-07 04:59 55.54986 12.32249 5000 ft 242 kts 224°
2026-05-07 04:59 55.53735 12.30280 5010 ft 241 kts 223°
2026-05-07 04:59 55.52473 12.28317 5011 ft 241 kts 223°
2026-05-07 04:59 55.51209 12.26367 5011 ft 242 kts 223°
2026-05-07 05:00 55.49942 12.24422 5009 ft 242 kts 223°
2026-05-07 05:00 55.48674 12.22460 5011 ft 241 kts 224°
2026-05-07 05:00 55.47439 12.20508 4718 ft 239 kts 224°
2026-05-07 05:00 55.46044 12.18823 4583 ft 256 kts 207°
2026-05-07 05:01 55.44273 12.18127 4592 ft 266 kts 178°
2026-05-07 05:01 55.42514 12.19063 4596 ft 266 kts 148°
2026-05-07 05:01 55.41274 12.21314 4431 ft 251 kts 117°
2026-05-07 05:01 55.40898 12.24194 4198 ft 239 kts 85°
2026-05-07 05:02 55.41394 12.26881 4068 ft 227 kts 64°
2026-05-07 05:02 55.42068 12.29349 3867 ft 221 kts 67°
2026-05-07 05:02 55.42608 12.31873 3627 ft 220 kts 73°
2026-05-07 05:02 55.43048 12.34457 3375 ft 220 kts 72°
2026-05-07 05:03 55.43764 12.36832 3141 ft 221 kts 50°
2026-05-07 05:03 55.44878 12.38600 3011 ft 214 kts 40°
2026-05-07 05:03 55.46015 12.40154 3001 ft 199 kts 40°
2026-05-07 05:03 55.47035 12.41644 3028 ft 181 kts 43°
2026-05-07 05:04 55.47948 12.43038 3002 ft 166 kts 44°
2026-05-07 05:04 55.48794 12.44354 2864 ft 160 kts 43°
2026-05-07 05:04 55.49637 12.45623 2632 ft 159 kts 43°
2026-05-07 05:04 55.50473 12.46904 2425 ft 158 kts 43°
2026-05-07 05:05 55.51276 12.48142 2183 ft 148 kts 43°
2026-05-07 05:05 55.52025 12.49291 1973 ft 137 kts 43°
2026-05-07 05:05 55.52722 12.50362 1797 ft 129 kts 43°
2026-05-07 05:05 55.53393 12.51395 1617 ft 128 kts 43°
2026-05-07 05:06 55.54067 12.52436 1443 ft 128 kts 43°
2026-05-07 05:06 55.54731 12.53498 1280 ft 129 kts 44°
2026-05-07 05:06 55.55396 12.54556 1129 ft 129 kts 45°
2026-05-07 05:06 55.56078 12.55582 969 ft 129 kts 40°
2026-05-07 05:07 55.56769 12.56601 804 ft 128 kts 42°
2026-05-07 05:07 55.57458 12.57626 640 ft 131 kts 43°
2026-05-07 05:07 55.58135 12.58674 461 ft 130 kts 39°
2026-05-07 05:07 55.58818 12.59741 201 ft 131 kts 40°
2026-05-07 05:08 55.59494 12.60769 32 ft 124 kts 39°
2026-05-07 05:08 55.60055 12.61639 29 ft 91 kts 41°
2026-05-07 05:08 55.60470 12.62286 29 ft 71 kts 42°
2026-05-07 05:08 55.60811 12.62812 28 ft 59 kts 41°
2026-05-07 05:09 55.61089 12.63242 32 ft 47 kts 41°
2026-05-07 05:09 55.61305 12.63578 32 ft 38 kts 41°
2026-05-07 05:09 55.61510 12.63885 31 ft 39 kts 40°
2026-05-07 05:09 55.61633 12.64061 34 ft 15 kts 28°
2026-05-07 05:10 55.61776 12.64080 33 ft 23 kts 358°
2026-05-07 05:10 55.61940 12.64129 30 ft 26 kts 30°
2026-05-07 05:10 55.62119 12.64276 29 ft 30 kts 24°
2026-05-07 05:10 55.62317 12.64422 28 ft 29 kts 15°
2026-05-07 05:11 55.62377 12.64517 30 ft 9 kts 88°
2026-05-07 05:11 55.62340 12.64657 26 ft 20 kts 122°
2026-05-07 05:11 55.62262 12.64871 30 ft 21 kts 123°
2026-05-07 05:11 55.62192 12.65056 30 ft 14 kts 122°
2026-05-07 05:12 55.62226 12.65189 29 ft 15 kts 14°
2026-05-07 05:12 55.62343 12.65198 27 ft 19 kts 359°
2026-05-07 05:12 55.62465 12.65188 29 ft 7 kts 354°
2026-05-07 05:12 55.62485 12.65177 30 ft 4 kts 333°
2026-05-07 05:13 55.62504 12.65136 28 ft 5 kts 292°
2026-05-07 05:13 55.62505 12.65083 27 ft 3 kts 271°
2026-05-07 05:13 55.62505 12.65074 27 ft 0 kts 270°
2026-05-07 05:14 55.62505 12.65057 26 ft 0 kts 270°